Location: Étouvelles
(49.5207°N, 3.5808°E)
Time: 09:26:53
(UTC+00:00)

Cosmos 1655 Rocket - Pass Details

Date: 03 February 2023
Orbit: 970 x 1006 km, 83.0° (Epoch: 23 March)

Event Time Altitude Azimuth Distance (km) Brightness Sun altitude
Rises 17:24:30 0° 350° (N) 3,701 7.0 -6.9°
Reaches altitude 10° 17:27:02 10° 350° (N) 2,744 6.3 -7.3°
Maximum altitude 17:33:20 89° 274° (W) 982 4.1 -8.3°
Drops below altitude 10° 17:39:34 10° 173° (S) 2,709 6.4 -9.3°
Sets 17:42:03 0° 173° (S) 3,650 7.1 -9.7°
